Date,TemperatureHighF,TemperatureAvgF,TemperatureLowF,DewpointHighF,DewpointAvgF,DewpointLowF,HumidityHigh,HumidityAvg,HumidityLow,PressureMaxIn,PressureMinIn,WindSpeedMaxMPH,WindSpeedAvgMPH,GustSpeedMaxMPH,PrecipitationSumIn
2013-2-1,75,64,55,45,40,34,50,42,33,0.00,40.00,9,6,14,0.00
2013-2-2,74,65,57,49,43,37,64,45,34,0.00,40.00,8,5,11,0.00
2013-2-3,71,63,54,49,45,42,69,53,41,0.00,40.00,11,6,16,0.00
2013-2-4,67,56,48,52,47,40,100,73,54,0.00,40.00,11,6,14,0.00
2013-2-5,54,49,44,52,48,44,100,96,84,0.00,40.00,7,4,16,0.01
2013-2-6,62,53,47,48,47,44,95,80,59,0.00,40.00,12,5,20,0.01
2013-2-7,61,52,44,50,46,42,92,80,65,0.00,40.00,14,6,19,0.00
2013-2-8,49,46,40,45,41,38,96,84,71,0.00,40.00,19,8,29,0.25
2013-2-9,56,45,36,41,37,34,94,75,46,0.00,40.00,15,7,20,0.07
2013-2-10,53,46,39,44,39,33,94,78,58,0.00,40.00,10,7,13,0.05
2013-2-11,61,47,39,45,36,17,87,68,18,0.00,40.00,12,7,28,0.02
2013-2-12,63,50,40,44,31,21,64,49,31,0.00,40.00,15,7,20,0.00
2013-2-13,65,53,43,46,36,27,68,52,34,0.00,40.00,11,7,15,0.00
2013-2-14,75,63,47,46,40,25,63,45,26,0.00,40.00,12,6,18,0.00
2013-2-15,81,70,59,26,20,15,26,16,9,0.00,40.00,15,8,27,0.00
2013-2-16,82,73,57,24,18,8,23,13,8,0.00,40.00,21,10,30,0.00
2013-2-17,66,56,46,48,38,18,95,56,21,0.00,40.00,14,7,21,0.00
2013-2-18,63,52,46,46,44,41,95,76,54,0.00,40.00,12,6,18,0.00
2013-2-19,51,48,43,48,42,37,98,82,66,0.00,40.00,15,7,26,0.35
2013-2-20,56,47,41,42,36,30,98,66,39,0.00,40.00,19,10,30,0.32
2013-2-21,60,48,43,45,40,37,87,74,46,0.00,40.00,12,6,18,0.13
2013-2-22,62,51,41,46,38,30,79,62,45,0.00,40.00,16,8,23,0.13
2013-2-23,63,52,44,45,37,27,87,58,36,0.00,40.00,13,8,18,0.00
2013-2-24,66,56,45,44,20,-4,92,38,7,0.00,40.00,15,8,37,0.00
2013-2-25,68,56,45,32,18,6,44,25,14,0.00,40.00,17,8,23,0.00
2013-2-26,68,55,43,45,32,15,58,43,23,0.00,40.00,12,6,16,0.00
2013-2-27,73,64,54,29,18,10,22,17,13,0.00,40.00,14,9,20,0.00
2013-2-28,79,69,54,24,18,6,23,15,9,0.00,40.00,16,8,26,0.00